Location: Houston
(29.7630°N, 95.3630°W)
Time: 20:23:51
(UTC-06:00)

Daily predictions for brighter satellites

Satellite Brightness Start Highest point End
(mag) Time Altitude Azimuth Time Altitude Azimuth Time Altitude Azimuth
Meteor 1-18 Rocket 4.2 17:38:15 10° S 17:43:47 81° E 17:49:22 10° N
Cosmos 2219 4.2 17:42:09 10° N 17:46:34 23° ENE 17:50:58 10° ESE
Cosmos 1271 Rocket 4.4 17:45:59 10° NE 17:47:53 13° ENE 17:49:46 10° ESE
CZ-2C R/B 3.9 17:43:02 10° S 17:47:56 44° W 17:52:53 10° NNW
Landsat 4 4.3 17:44:58 10° NNE 17:48:33 37° E 17:52:06 10° SSE
Cosmos 2285 Rocket 4.4 17:47:23 10° NNW 17:53:40 73° WSW 17:59:57 10° S
ASTRO E2 2.7 17:51:15 10° W 17:55:16 84° SSW 17:59:18 10° ESE
Cosmos 2279 Rocket 4.0 17:49:26 10° S 17:55:37 68° E 18:01:50 10° NNE
Cosmos 1500 3.1 17:52:19 10° N 17:56:05 79° E 17:59:49 10° S
YAOGAN 1 3.1 17:55:01 10° SE 17:58:58 36° ENE 18:02:55 10° N
Cosmos 1455 Rocket 4.2 17:56:21 10° NNE 17:59:47 22° ENE 18:03:12 10° SE
ATLAS 2AS CENTAUR R/B 3.0 17:55:15 10° SSW 18:02:44 81° ESE 18:10:49 10° NNE
Cosmos 1680 Rocket 4.2 17:57:56 10° NNW 18:03:09 62° WSW 18:08:21 10° S
Cosmos 1544 Rocket 4.5 17:59:36 10° NNE 18:03:15 26° E 18:06:53 10° SE
Cosmos 1607 4.3 18:03:30 10° NNW 18:09:41 44° ENE 18:15:44 10° SE
CORIOLIS 4.2 18:04:31 10° SSE 18:09:57 84° ENE 18:15:23 10° N
Meteor 2-4 Rocket 4.2 18:05:07 10° SSE 18:10:09 36° E 18:15:05 10° NNE
Tiangong 1 4.3 18:10:41 10° SW 18:11:16 10° SW 18:11:51 10° SSW
Orbus 7S 4.3 18:10:41 10° WSW 18:13:01 40° S 18:16:54 10° ESE
SMAP 3.4 18:08:53 10° S 18:13:30 69° W 18:18:08 10° NNW
ERS-2 2.9 18:11:47 10° SE 18:15:00 29° ENE 18:18:12 10° NNE
Cosmos 2297 Rocket 4.0 18:13:32 10° NE 18:14:37 12° NE 18:14:37 12° NE
COSMO-SKYMED 1 2.5 18:12:39 10° NNE 18:17:00 72° ESE 18:21:18 10° S
Delta 2 Rocket 4.4 18:12:33 10° W 18:17:46 46° N 18:21:15 18° ENE
Cosmos 389 Rocket 2.7 18:15:46 10° N 18:19:07 44° E 18:22:25 10° SSE
Meteor 1-19 Rocket 4.2 18:13:44 10° S 18:19:17 71° E 18:24:57 10° NNE
MOS 1 4.5 18:15:26 10° SE 18:20:52 48° ENE 18:26:18 10° N
Meteor 1-12 Rocket 4.2 18:15:34 10° N 18:21:15 76° E 18:27:00 10° SSE
USA 215 3.9 18:14:55 10° SSE 18:21:19 58° SW 18:27:45 10° NW
ALOS 2.8 18:17:57 10° SE 18:22:09 34° ENE 18:26:21 10° N
Cosmos 1975 Rocket 4.4 18:19:38 10° SSW 18:23:49 41° W 18:28:03 10° N
ATLAS 3B R/B 3.8 18:19:30 10° N 18:23:56 19° NE 18:25:15 18° ENE
Hubble Space Telescope 1.0 18:21:07 10° WSW 18:25:13 62° S 18:27:52 21° E
Ariane Rocket 4.1 18:22:47 10° S 18:27:39 48° W 18:32:32 10° NNW
Cosmos 1666 2.7 18:25:16 10° N 18:28:54 50° E 18:32:32 10° SSE
OAO 1 Rocket 4.4 18:23:53 10° WSW 18:29:12 77° SSE 18:32:33 23° ENE
Aureole 1 Rocket 4.2 18:23:17 10° N 18:29:25 70° ENE 18:37:11 10° SSE
IRS-1A Rocket 4.3 18:24:21 10° SSE 18:30:03 86° WSW 18:35:39 10° NNW
DELTA 2 R/B (1) 4.3 18:25:12 10° W 18:30:30 44° NNW 18:34:06 20° NE
Cosmos 2369 3.9 18:28:21 10° S 18:33:45 49° ESE 18:37:46 18° NE
Cosmos 1655 Rocket 4.1 18:28:07 10° N 18:34:30 83° W 18:40:53 10° S
Cosmos 1125 Rocket 3.7 18:30:13 10° S 18:35:18 49° ESE 18:39:01 18° NNE
SJ 16-02 1.7 18:31:21 10° S 18:35:26 40° E 18:37:20 26° NE
Cosmos 2278 3.9 18:31:22 10° S 18:36:47 49° ESE 18:40:30 20° NE
BREEZE-M DEB (TANK) 3.3 18:35:20 10° NW 18:38:17 87° SW 18:47:23 10° SE
ATLAS CENTAUR R/B 3.8 18:41:10 10° NW 18:44:38 26° WSW 18:48:15 10° S
EO 1 Del DPAF 4.1 18:43:12 10° N 18:46:54 50° WNW 18:50:35 10° SSW
Skynet4D Del rocket 4.3 18:41:42 10° SW 18:47:05 42° SSE 18:49:39 26° ESE
Cosmos 1656 3.7 18:42:14 10° S 18:47:42 56° ESE 18:50:40 26° NE
Atlas Centaur 2 1.2 18:45:01 10° W 18:49:36 82° N 18:50:40 47° ENE
Cosmos 1536 Rocket 3.7 18:47:29 10° S 18:51:52 75° W 18:56:14 10° N
CZ-4 R/B 3.7 18:50:55 10° SSW 18:54:03 24° W 18:57:14 10° NW
Cosmos 1743 3.8 18:55:10 10° NNW 18:58:52 45° W 19:02:34 10° SSW
Cosmos 2266 Rocket 3.8 18:57:48 10° N 19:03:53 78° E 19:10:03 10° S
PSLV R/B 4.4 19:02:03 10° W 19:04:32 33° NW 19:04:32 33° NW
Meteor 1-23 Rocket 4.2 18:59:37 10° S 19:05:25 84° E 19:10:10 16° N
Okean 2 4.5 19:04:29 10° S 19:06:50 31° SSE 19:06:50 31° SSE
Cosmos 1025 Rocket 3.7 19:04:49 10° S 19:07:47 39° SE 19:07:47 39° SE
Cosmos 1697 Rocket 2.7 19:04:16 10° S 19:09:46 57° ESE 19:10:38 51° ENE
FENGYUN 3A 3.9 19:08:39 10° S 19:14:00 68° WSW 19:19:21 10° NNW
USA 238 DEB 3.9 19:10:06 10° NNW 19:16:56 46° ENE 19:17:13 46° ENE
USA 238 4.0 19:10:13 10° NNW 19:17:01 46° ENE 19:17:14 46° ENE
Cosmos 372 Rocket 4.4 19:14:53 10° SSW 19:20:01 59° WNW 19:22:42 28° N
SPOT 3 Rocket 4.3 19:15:08 10° S 19:20:12 53° W 19:25:16 10° NNW
GOES 2 Rocket 3.6 19:19:09 10° WSW 19:24:12 75° S 19:24:57 65° ESE
Cosmos 2227 Rocket 2.6 19:26:54 10° NNW 19:30:57 47° N 19:30:57 47° N
BREEZE-M DEB (TANK) 3.9 19:31:47 10° NW 19:36:10 86° NE 19:56:06 10° SE
Thor Agena Rocket 4.2 19:41:57 42° NNW 19:43:15 53° WNW 19:48:20 10° SSW
Cosmos 1980 Rocket 3.2 19:42:19 10° S 19:45:31 35° S 19:45:31 35° S
Cosmos 2297 Rocket 3.9 19:54:39 10° NNW 19:56:34 22° NNW 19:56:34 22° NNW
Hubble Space Telescope 3.6 20:02:14 10° W 20:03:14 17° W 20:03:14 17° W
SJ 16-02 4.2 20:12:19 10° W 20:14:10 12° WNW 20:14:25 12° WNW
NOSS 3-4 (A) 4.3 20:08:56 10° SW 20:14:08 44° WNW 20:14:08 44° WNW
NOSS 3-4 (C) 4.3 20:09:01 10° SW 20:14:10 45° WNW 20:14:10 45° WNW
ATLAS 3B R/B 3.6 20:08:37 10° NW 20:12:37 39° NW 20:12:37 39° NW
